TimeCST,TemperatureF,Dew PointF,Humidity,Sea Level PressureIn,VisibilityMPH,Wind Direction,Wind SpeedMPH,Gust SpeedMPH,PrecipitationIn,Events,Conditions,WindDirDegrees,DateUTC
12:53 AM,33.1,26.1,75,29.98,10.0,North,5.8,-,0.00,,Overcast,360,2012-12-08 06:53:00
1:53 AM,33.1,27.0,78,29.97,8.0,North,8.1,-,0.00,Snow,Light Snow,10,2012-12-08 07:53:00
2:53 AM,32.0,27.0,82,29.97,9.0,NNE,8.1,-,0.00,Snow,Light Snow,20,2012-12-08 08:53:00
3:53 AM,33.1,27.0,78,29.98,10.0,North,6.9,-,0.00,,Overcast,10,2012-12-08 09:53:00
4:53 AM,30.2,26.6,86,29.96,9.0,North,5.8,-,N/A,Snow,Light Snow,360,2012-12-08 10:53:00
5:53 AM,28.9,26.1,89,29.99,9.0,North,4.6,-,0.00,Snow,Light Snow,350,2012-12-08 11:53:00
6:53 AM,30.0,25.0,82,30.02,10.0,NNW,8.1,-,0.00,,Mostly Cloudy,340,2012-12-08 12:53:00
7:07 AM,28.4,24.8,86,30.00,10.0,NNW,5.8,-,N/A,,Mostly Cloudy,340,2012-12-08 13:07:00
7:21 AM,26.6,24.8,93,30.00,10.0,NNW,5.8,-,N/A,,Scattered Clouds,340,2012-12-08 13:21:00
7:53 AM,28.0,23.0,81,30.04,10.0,North,5.8,-,N/A,,Partly Cloudy,350,2012-12-08 13:53:00
8:53 AM,30.9,24.1,76,30.05,10.0,North,8.1,-,N/A,,Scattered Clouds,360,2012-12-08 14:53:00
9:53 AM,32.0,25.0,75,30.08,10.0,NNE,8.1,-,N/A,,Scattered Clouds,20,2012-12-08 15:53:00
10:53 AM,36.0,27.0,70,30.08,10.0,North,8.1,-,N/A,,Partly Cloudy,360,2012-12-08 16:53:00
11:53 AM,39.0,28.0,65,30.06,10.0,NNE,8.1,-,N/A,,Scattered Clouds,30,2012-12-08 17:53:00
12:53 PM,37.9,27.0,65,30.06,10.0,East,6.9,-,N/A,,Partly Cloudy,80,2012-12-08 18:53:00
1:53 PM,37.9,26.1,62,30.06,10.0,NNE,8.1,-,N/A,,Partly Cloudy,20,2012-12-08 19:53:00
2:53 PM,36.0,27.0,70,30.08,10.0,East,6.9,-,N/A,,Partly Cloudy,80,2012-12-08 20:53:00
3:53 PM,34.0,27.0,75,30.10,10.0,East,5.8,-,N/A,,Clear,80,2012-12-08 21:53:00
4:53 PM,30.9,25.0,79,30.11,10.0,NE,4.6,-,N/A,,Clear,50,2012-12-08 22:53:00
5:53 PM,30.9,26.1,82,30.12,10.0,NE,5.8,-,N/A,,Clear,40,2012-12-08 23:53:00
6:53 PM,30.9,26.1,82,30.10,10.0,ENE,6.9,-,N/A,,Clear,70,2012-12-09 00:53:00
7:53 PM,30.9,26.1,82,30.12,8.0,East,6.9,-,N/A,,Scattered Clouds,90,2012-12-09 01:53:00
8:08 PM,32.0,26.6,80,30.10,8.0,East,6.9,-,N/A,,Mostly Cloudy,100,2012-12-09 02:08:00
8:53 PM,32.0,27.0,82,30.13,8.0,ESE,8.1,-,N/A,,Overcast,110,2012-12-09 02:53:00
9:05 PM,32.0,26.6,80,30.10,8.0,ESE,6.9,-,N/A,,Overcast,110,2012-12-09 03:05:00
9:53 PM,33.1,27.0,78,30.13,10.0,ESE,6.9,-,N/A,,Overcast,110,2012-12-09 03:53:00
10:53 PM,32.0,27.0,82,30.13,10.0,East,5.8,-,N/A,,Overcast,80,2012-12-09 04:53:00
11:53 PM,32.0,27.0,82,30.12,10.0,ENE,6.9,-,N/A,,Mostly Cloudy,70,2012-12-09 05:53:00